This is the latest recevied weather packets stored in our database for station/object IK2ILW-4. If no packets are shown the sender has not sent any weather packets the latest 10 day(s).
| Time | Temp. | Humidity | Pressure | Rain* | Wind** | Luminosity | Snow |
|---|---|---|---|---|---|---|---|
| 1787908354 | 22.22° C | 61% | 1023.1 hPa | 0.76 mm | - | 206 W/m² | - |
| 1787908064 | 22.22° C | 58% | 1023.1 hPa | 0.76 mm | - | 195 W/m² | - |
| 1787907772 | 22.22° C | 59% | 1023.1 hPa | 0.76 mm | - | 239 W/m² | - |
| 1787907452 | 22.22° C | 60% | 1023.1 hPa | 0.76 mm | - | 269 W/m² | - |
| 1787907169 | 22.22° C | 60% | 1023.1 hPa | 0.76 mm | - | 325 W/m² | - |
| 1787906853 | 22.22° C | 60% | 1023.1 hPa | 0.76 mm | - | 390 W/m² | - |
| 1787906573 | 22.22° C | 61% | 1023.1 hPa | 0.76 mm | - | 294 W/m² | - |
| 1787906269 | 21.67° C | 69% | 1023.1 hPa | 0.76 mm | - | 260 W/m² | - |
| 1787905974 | 21.11° C | 68% | 1023.1 hPa | 0.76 mm | - | 260 W/m² | - |
| 1787905671 | 21.67° C | 68% | 1022.8 hPa | 0.76 mm | - | 283 W/m² | - |
| 1787905356 | 21.67° C | 62% | 1022.8 hPa | 0.76 mm | - | 325 W/m² | - |
| 1787905057 | 21.11° C | 66% | 1022.8 hPa | 0.76 mm | - | 200 W/m² | - |
| 1787904770 | 21.11° C | 67% | 1023.1 hPa | 0.51 mm | - | 158 W/m² | - |
| 1787904456 | 20.56° C | 72% | 1023.1 hPa | 0.51 mm | - | 185 W/m² | - |
| 1787904161 | 20.56° C | 77% | 1023.1 hPa | 0.51 mm | - | 315 W/m² | - |
| 1787903851 | 20.56° C | 77% | 1023.2 hPa | 0.51 mm | - | 190 W/m² | - |
| 1787903570 | 21.11° C | 71% | 1023.2 hPa | 0.51 mm | - | 204 W/m² | - |
| 1787903257 | 20.56° C | 72% | 1023.2 hPa | 0.51 mm | - | 149 W/m² | - |
| 1787902972 | 20° C | 77% | 1023.4 hPa | 0.51 mm | - | 149 W/m² | - |
| 1787902662 | 20.56° C | 79% | 1023.4 hPa | 0.51 mm | - | 134 W/m² | - |
| 1787902370 | 20.56° C | 74% | 1023.4 hPa | 0.51 mm | - | 137 W/m² | - |
| 1787902066 | 20° C | 76% | 1023.4 hPa | 0.51 mm | - | 105 W/m² | - |
| 1787901763 | 19.44° C | 77% | 1023.4 hPa | 0.51 mm | - | 105 W/m² | - |
| 1787901461 | 19.44° C | 79% | 1023.4 hPa | 0.51 mm | - | 128 W/m² | - |
| 1787901156 | 20° C | 78% | 1023.5 hPa | 0.51 mm | - | 76 W/m² | - |
* Rain since midnight (hover to see other rain measurements)
** Current wind speed in m/s (hover to see current wind gust speed)